Le nostre stazioni meteo in Italia

Pubblicità
Il mio iltempo24.it
Mt. St.Vincent, Francia (7382): Temperatura & dewpoint: 13.04.2019 17:00:00 - 19.04.2019 17:00:00 (CEST)Mt. St.Vincent, Francia (7382): velocità del vento & gusts: 13.04.2019 17:00:00 - 19.04.2019 17:00:00 (CEST)Mt. St.Vincent, Francia (7382): direzione del vento: 13.04.2019 17:00:00 - 19.04.2019 17:00:00 (CEST)Mt. St.Vincent, Francia (7382): ore di luce: 13.04.2019 17:00:00 - 19.04.2019 17:00:00 (CEST)Mt. St.Vincent, Francia (7382): precipitazioni: 13.04.2019 17:00:00 - 19.04.2019 17:00:00 (CEST)
Data & Tempo tt [°C] td [°C] ff [km/h] ff [kn] fx [km/h] fx [kn] dd sd [min] rr [mm]
19.04.2019 17:00:00 - - - - - - - - -
19.04.2019 16:00:00 20,0 5,2 16 9 31 17 E 60 0,0
19.04.2019 15:00:00 19,6 5,3 18 10 34 18 E 60 0,0
19.04.2019 14:00:00 19,4 5,4 18 10 34 18 E 60 -
19.04.2019 13:00:00 18,9 5,7 16 9 28 15 ESE 60 0,0
19.04.2019 12:00:00 18,2 4,0 9 5 31 17 SE 60 0,0
19.04.2019 11:00:00 17,6 1,5 11 6 22 12 SE 54 0,0
19.04.2019 10:00:00 16,3 2,3 9 5 26 14 S 30 0,0
19.04.2019 09:00:00 14,7 1,6 9 5 21 11 SSE 0 0,0
19.04.2019 08:00:00 13,7 1,7 5 3 18 10 ESE 0 -
19.04.2019 07:00:00 13,6 0,2 13 7 24 13 S 0 0,0
19.04.2019 06:00:00 13,6 0,9 11 6 28 15 SE 0 0,0
19.04.2019 05:00:00 13,9 0,8 16 9 35 19 SSE 0 0,0
19.04.2019 04:00:00 13,9 0,5 22 12 35 19 S 0 0,0
19.04.2019 03:00:00 13,7 1,7 22 12 44 24 SO 0 0,0
19.04.2019 02:00:00 14,4 1,3 28 15 44 24 SO 0 -
19.04.2019 01:00:00 15,2 1,7 22 12 34 18 SSO 0 0,0
19.04.2019 00:00:00 15,2 3,3 15 8 22 12 S 0 0,0
18.04.2019 23:00:00 15,0 5,5 15 8 28 15 SE 0 0,0
18.04.2019 22:00:00 15,5 5,7 21 11 29 16 ESE 0 0,0
18.04.2019 21:00:00 15,8 5,4 22 12 34 18 ESE 0 0,0
18.04.2019 20:00:00 16,4 5,4 22 12 35 19 E 0 -
18.04.2019 19:00:00 17,4 5,3 24 13 39 21 ESE 0 0,0
18.04.2019 18:00:00 18,1 5,3 29 16 42 23 ESE 36 0,0
18.04.2019 17:00:00 18,5 5,0 28 15 46 25 ESE 60 0,0
18.04.2019 16:00:00 18,5 4,3 29 16 59 32 ESE 60 0,0
18.04.2019 15:00:00 18,3 4,1 35 19 57 31 ESE 60 0,0
18.04.2019 14:00:00 17,1 5,1 31 17 59 32 E 60 -
18.04.2019 13:00:00 17,0 4,0 39 21 61 33 ESE 60 0,0
18.04.2019 12:00:00 16,4 4,4 37 20 57 31 ESE 60 0,0
18.04.2019 11:00:00 15,2 3,3 37 20 55 30 ESE 60 0,0
18.04.2019 10:00:00 13,7 5,1 31 17 48 26 ESE 60 0,0
18.04.2019 09:00:00 12,0 4,5 29 16 42 23 ESE 60 0,0
18.04.2019 08:00:00 10,4 4,3 26 14 37 20 ESE 48 -
18.04.2019 07:00:00 9,7 3,6 26 14 50 27 SE 0 0,0
18.04.2019 06:00:00 10,2 3,2 34 18 52 28 SE 0 0,0
18.04.2019 05:00:00 9,5 4,1 26 14 39 21 ESE 0 0,0
18.04.2019 04:00:00 10,2 4,6 28 15 42 23 ESE 0 0,0
18.04.2019 03:00:00 11,1 5,4 26 14 41 22 SE 0 0,0
18.04.2019 02:00:00 12,0 6,1 24 13 37 20 ESE 0 -
18.04.2019 01:00:00 12,5 6,1 26 14 37 20 ESE 0 0,0
18.04.2019 00:00:00 12,4 6,2 26 14 35 19 E 0 0,0
17.04.2019 23:00:00 12,8 6,2 26 14 37 20 E 0 0,0
17.04.2019 22:00:00 12,5 7,0 24 13 34 18 E 0 0,0
17.04.2019 21:00:00 12,7 7,2 22 12 29 16 E 0 0,0
17.04.2019 20:00:00 14,1 4,7 24 13 31 17 E 24 -
17.04.2019 19:00:00 15,0 4,7 22 12 42 23 E 42 0,0
17.04.2019 18:00:00 15,4 5,3 28 15 48 26 E 54 0,0
17.04.2019 17:00:00 16,0 5,9 18 10 39 21 E 60 0,0
17.04.2019 16:00:00 15,2 8,4 22 12 41 22 E 54 0,0
17.04.2019 15:00:00 14,9 8,6 22 12 35 19 E 36 0,0
17.04.2019 14:00:00 14,4 9,0 18 10 31 17 E 54 -
17.04.2019 13:00:00 13,5 9,0 18 10 37 20 E 60 0,0
17.04.2019 12:00:00 12,7 8,4 22 12 35 19 E 54 0,0
17.04.2019 11:00:00 11,4 8,8 22 12 29 16 E 60 0,0
17.04.2019 10:00:00 11,8 8,3 9 5 15 8 E 60 0,0
17.04.2019 09:00:00 11,1 7,0 5 3 9 5 SSE 60 0,0
17.04.2019 08:00:00 8,8 6,9 8 4 9 5 SSO 48 -
17.04.2019 07:00:00 7,5 6,9 8 4 11 6 OSO 0 0,0
17.04.2019 06:00:00 7,4 6,2 9 5 11 6 SO 0 0,0
17.04.2019 05:00:00 7,5 6,1 5 3 8 4 SO 0 0,0
17.04.2019 04:00:00 7,7 6,2 4 2 8 4 O 0 0,0
17.04.2019 03:00:00 7,2 6,3 8 4 13 7 O 0 0,0
17.04.2019 02:00:00 7,6 6,2 11 6 16 9 O 0 -
17.04.2019 01:00:00 8,0 6,5 13 7 18 10 O 0 0,0
17.04.2019 00:00:00 8,1 7,2 9 5 15 8 ONO 0 0,0
16.04.2019 23:00:00 8,8 7,4 11 6 18 10 ONO 0 0,0
16.04.2019 22:00:00 9,9 7,3 11 6 21 11 ONO 0 0,0
16.04.2019 21:00:00 10,4 7,5 11 6 22 12 O 6 0,0
16.04.2019 20:00:00 11,3 8,0 8 4 22 12 ONO 24 -
16.04.2019 19:00:00 11,6 7,9 16 9 31 17 O 0 0,0
16.04.2019 18:00:00 11,9 8,4 13 7 26 14 O 0 0,0
16.04.2019 17:00:00 10,9 9,3 11 6 21 11 SSO 0 0,0
16.04.2019 16:00:00 9,7 8,5 11 6 29 16 SSO 0 0,0
16.04.2019 15:00:00 8,9 8,4 16 9 37 20 SSO 0 0,0
16.04.2019 14:00:00 8,3 8,2 21 11 37 20 SO 0 -
16.04.2019 13:00:00 7,8 7,8 18 10 29 16 SSO 0 0,4
16.04.2019 12:00:00 7,3 6,9 18 10 29 16 S 0 0,0
16.04.2019 11:00:00 7,5 6,1 16 9 29 16 S 0 0,0
16.04.2019 10:00:00 7,5 5,0 21 11 34 18 SSE 0 0,0
16.04.2019 09:00:00 7,4 4,7 18 10 34 18 S 0 0,4
16.04.2019 08:00:00 7,8 4,4 22 12 37 20 SO 0 -
16.04.2019 07:00:00 7,9 3,2 18 10 34 18 S 0 0,4
16.04.2019 06:00:00 8,8 2,8 21 11 35 19 SSE 0 0,2
16.04.2019 05:00:00 9,4 2,0 16 9 24 13 SSE 0 0,0
16.04.2019 04:00:00 9,4 1,8 15 8 34 18 S 0 0,0
16.04.2019 03:00:00 9,4 2,0 22 12 35 19 SO 0 0,0
16.04.2019 02:00:00 9,0 3,0 18 10 29 16 SSO 0 -
16.04.2019 01:00:00 8,8 3,2 24 13 37 20 SE 0 0,0
16.04.2019 00:00:00 9,3 2,8 29 16 39 21 SE 0 0,0
15.04.2019 23:00:00 9,8 1,9 26 14 41 22 SE 0 0,0
15.04.2019 22:00:00 10,6 1,7 28 15 44 24 ESE 0 0,0
15.04.2019 21:00:00 11,1 0,8 31 17 48 26 ESE 0 0,0
15.04.2019 20:00:00 11,7 0,4 35 19 50 27 ESE 0 -
15.04.2019 19:00:00 12,6 0,0 34 18 52 28 ESE 60 0,0
15.04.2019 18:00:00 12,5 0,9 34 18 52 28 ESE 60 0,0
15.04.2019 17:00:00 12,2 0,6 29 16 48 26 ESE 60 0,0
15.04.2019 16:00:00 11,4 1,3 31 17 48 26 ESE 60 0,0
15.04.2019 15:00:00 10,6 0,9 29 16 48 26 E 60 0,0
15.04.2019 14:00:00 9,7 1,3 29 16 44 24 E 60 -
15.04.2019 13:00:00 8,5 -0,3 22 12 34 18 E 60 0,0
15.04.2019 12:00:00 7,0 1,1 22 12 31 17 E 60 0,0
15.04.2019 11:00:00 5,1 1,4 16 9 28 15 E 60 0,0
15.04.2019 10:00:00 3,8 1,5 16 9 35 19 ENE 60 0,0
15.04.2019 09:00:00 1,4 0,2 26 14 41 22 ENE 60 0,0
15.04.2019 08:00:00 1,0 0,1 22 12 35 19 ENE 42 -
15.04.2019 07:00:00 0,6 -0,1 24 13 48 26 ENE 0 0,0
15.04.2019 06:00:00 1,0 0,1 29 16 46 25 ENE 0 0,0
15.04.2019 05:00:00 1,1 -0,1 29 16 44 24 ENE 0 0,0
15.04.2019 04:00:00 1,3 0,0 29 16 50 27 ENE 0 0,0
15.04.2019 03:00:00 1,5 0,0 28 15 46 25 NE 0 0,0
15.04.2019 02:00:00 1,6 -0,2 29 16 54 29 NE 0 -
15.04.2019 01:00:00 1,6 -1,0 21 11 41 22 NE 0 0,0
15.04.2019 00:00:00 2,1 -1,9 24 13 42 23 NE 0 0,0
14.04.2019 23:00:00 2,6 -2,5 29 16 46 25 NE 0 0,0
14.04.2019 22:00:00 3,1 -4,1 24 13 41 22 NE 0 0,0
14.04.2019 21:00:00 3,2 -5,2 16 9 41 22 NE 6 0,0
14.04.2019 20:00:00 4,2 -5,6 24 13 39 21 NE 54 -
14.04.2019 19:00:00 4,8 -5,3 22 12 39 21 NE 42 0,0
14.04.2019 18:00:00 6,3 -5,4 15 8 35 19 NE 42 0,0
14.04.2019 17:00:00 7,2 -4,0 13 7 39 21 NNE 54 0,0
14.04.2019 16:00:00 6,4 -4,4 18 10 39 21 NE 24 0,0
14.04.2019 15:00:00 6,9 -4,2 16 9 34 18 NNE 30 0,0
14.04.2019 14:00:00 4,8 -4,0 13 7 31 17 NNE 12 -
14.04.2019 13:00:00 5,7 -2,9 11 6 29 16 NNE 42 0,0
14.04.2019 12:00:00 4,4 -1,8 13 7 28 15 NNE 36 0,0
14.04.2019 11:00:00 2,1 -2,4 8 4 22 12 NNE 36 0,0
14.04.2019 10:00:00 1,6 -1,8 11 6 22 12 NE 60 0,0
14.04.2019 09:00:00 0,0 -3,2 11 6 24 13 NE 60 0,0
14.04.2019 08:00:00 -1,0 -4,4 13 7 28 15 NNE 42 -
14.04.2019 07:00:00 -2,0 -4,8 13 7 26 14 NNE 0 0,0
14.04.2019 06:00:00 -1,6 -4,6 15 8 28 15 NNE 0 0,0
14.04.2019 05:00:00 -1,6 -5,1 18 10 31 17 ENE 0 0,0
14.04.2019 04:00:00 -1,0 -5,4 18 10 35 19 NE 0 0,0
14.04.2019 03:00:00 -0,3 -6,5 21 11 34 18 NE 0 0,0
14.04.2019 02:00:00 0,4 -6,9 16 9 29 16 NNE 0 -
14.04.2019 01:00:00 0,7 -6,4 18 10 29 16 NNE 0 0,0
14.04.2019 00:00:00 1,3 -5,8 18 10 31 17 NE 0 0,0
13.04.2019 23:00:00 1,2 -5,1 16 9 34 18 NNE 0 0,0
13.04.2019 22:00:00 2,4 -4,8 13 7 37 20 NNE 0 0,0
13.04.2019 21:00:00 3,7 -4,8 11 6 29 16 N 0 0,0
13.04.2019 20:00:00 4,7 -4,1 9 5 24 13 NNE 36 -
13.04.2019 19:00:00 6,1 -3,8 9 5 28 15 N 12 0,0
13.04.2019 18:00:00 6,5 -2,9 11 6 26 14 NNE 12 0,0
13.04.2019 17:00:00 9,2 -1,5 9 5 28 15 N 48 0,0

tt = Temperatura
td = dewpoint
ff = velocità del vento
fx = gusts
dd = direzione del vento
sd = ore di luce
rr = precipitazioni

Stazioni seguenti

WeatherPro
AMSI
MeteoEarth